Data supplied by UK-AIR on 8/11/2015
All Data GMT hour ending 
Status: R =Ratified P=Provisional,P*=As supplied
,,Inverness,,,,,,,,,,,,,,,,,,,,,,,
Date,time,"Nitric oxide",status,unit,"Nitrogen dioxide",status,unit,"Nitrogen oxides as nitrogen dioxide",status,unit,"Daily measured PM<sub>10</sub> (uncorrected)",status,unit,"Daily measured PM<sub>2.5</sub> (uncorrected)",status,unit
 
01-01-2013,01:00,2.13372,R,ugm-3,15.93368,R,ugm-3,19.20520,R,ugm-3,,,,,,
01-01-2013,02:00,3.28289,R,ugm-3,20.63014,R,ugm-3,25.66358,R,ugm-3,,,,,,
01-01-2013,03:00,2.09297,R,ugm-3,18.52448,R,ugm-3,21.73332,R,ugm-3,,,,,,
01-01-2013,04:00,1.92864,R,ugm-3,17.37363,R,ugm-3,20.33117,R,ugm-3,,,,,,
01-01-2013,05:00,1.39511,R,ugm-3,15.19673,R,ugm-3,17.33567,R,ugm-3,,,,,,
01-01-2013,06:00,1.14939,R,ugm-3,10.28303,R,ugm-3,12.04574,R,ugm-3,,,,,,
01-01-2013,07:00,1.47743,R,ugm-3,12.20223,R,ugm-3,14.46763,R,ugm-3,,,,,,
01-01-2013,08:00,1.84663,R,ugm-3,17.18094,R,ugm-3,20.01250,R,ugm-3,,,,,,
01-01-2013,09:00,1.72346,R,ugm-3,16.86012,R,ugm-3,19.50262,R,ugm-3,,,,,,
01-01-2013,10:00,1.47712,R,ugm-3,15.07050,R,ugm-3,17.33567,R,ugm-3,,,,,,
01-01-2013,11:00,1.60060,R,ugm-3,17.23928,R,ugm-3,19.69383,R,ugm-3,,,,,,
01-01-2013,12:00,2.09297,R,ugm-3,16.67557,R,ugm-3,19.88503,R,ugm-3,,,,,,
01-01-2013,13:00,3.20057,R,ugm-3,24.92035,R,ugm-3,29.82754,R,ugm-3,,,,,,
01-01-2013,14:00,3.98045,R,ugm-3,30.54406,R,ugm-3,36.64709,R,ugm-3,,,,,,
01-01-2013,15:00,5.00635,R,ugm-3,33.62318,R,ugm-3,41.29967,R,ugm-3,,,,,,
01-01-2013,16:00,12.43402,R,ugm-3,40.20744,R,ugm-3,59.27268,R,ugm-3,,,,,,
01-01-2013,17:00,8.53559,R,ugm-3,41.59640,R,ugm-3,54.68383,R,ugm-3,,,,,,
01-01-2013,18:00,4.88318,R,ugm-3,41.01452,R,ugm-3,48.50162,R,ugm-3,,,,,,
01-01-2013,19:00,2.38016,R,ugm-3,32.48764,R,ugm-3,36.13721,R,ugm-3,,,,,,
01-01-2013,20:00,4.80148,R,ugm-3,26.60813,R,ugm-3,33.97026,R,ugm-3,,,,,,
01-01-2013,21:00,4.06246,R,ugm-3,29.27081,R,ugm-3,35.49987,R,ugm-3,,,,,,
01-01-2013,22:00,5.33470,R,ugm-3,27.83022,R,ugm-3,36.00975,R,ugm-3,,,,,,
01-01-2013,23:00,5.70390,R,ugm-3,29.74942,R,ugm-3,38.49537,R,ugm-3,,,,,,
01-01-2013,24:00,2.83168,R,ugm-3,23.12786,R,ugm-3,27.46938,R,ugm-3,,,,,,
02-01-2013,01:00,1.53792,R,ugm-3,16.93391,R,ugm-3,19.29164,R,ugm-3,,,,,,
02-01-2013,02:00,1.75786,R,ugm-3,12.66968,R,ugm-3,15.36503,R,ugm-3,,,,,,
02-01-2013,03:00,1.44188,R,ugm-3,12.89838,R,ugm-3,15.10894,R,ugm-3,,,,,,
02-01-2013,04:00,1.23576,R,ugm-3,13.21394,R,ugm-3,15.10894,R,ugm-3,,,,,,
02-01-2013,05:00,1.11228,R,ugm-3,11.93065,R,ugm-3,13.63646,R,ugm-3,,,,,,
02-01-2013,06:00,1.40041,R,ugm-3,8.60864,R,ugm-3,10.75552,R,ugm-3,,,,,,
02-01-2013,07:00,1.81264,R,ugm-3,13.09776,R,ugm-3,15.87719,R,ugm-3,,,,,,
02-01-2013,08:00,1.48273,R,ugm-3,18.98108,R,ugm-3,21.25495,R,ugm-3,,,,,,
02-01-2013,09:00,1.02996,R,ugm-3,13.52950,R,ugm-3,15.10894,R,ugm-3,,,,,,
02-01-2013,10:00,1.31840,R,ugm-3,14.43173,R,ugm-3,16.45338,R,ugm-3,,,,,,
02-01-2013,11:00,2.51269,R,ugm-3,21.11496,R,ugm-3,24.96817,R,ugm-3,,,,,,
02-01-2013,12:00,2.30657,R,ugm-3,24.76114,R,ugm-3,28.29725,R,ugm-3,,,,,,
02-01-2013,13:00,3.50117,R,ugm-3,32.46803,R,ugm-3,37.83637,R,ugm-3,,,,,,
02-01-2013,14:00,5.76689,R,ugm-3,38.14912,R,ugm-3,46.99137,R,ugm-3,,,,,,
02-01-2013,15:00,4.81957,R,ugm-3,38.06497,R,ugm-3,45.45487,R,ugm-3,,,,,,
02-01-2013,16:00,9.06226,R,ugm-3,42.82709,R,ugm-3,56.72255,R,ugm-3,,,,,,
02-01-2013,17:00,15.15844,R,ugm-3,41.22681,R,ugm-3,64.46908,R,ugm-3,,,,,,
02-01-2013,18:00,18.45380,R,ugm-3,43.85649,R,ugm-3,72.15160,R,ugm-3,,,,,,
02-01-2013,19:00,4.77841,R,ugm-3,36.84766,R,ugm-3,44.17445,R,ugm-3,,,,,,
02-01-2013,20:00,2.67733,R,ugm-3,31.55482,R,ugm-3,35.65966,R,ugm-3,,,,,,
02-01-2013,21:00,1.77117,R,ugm-3,21.61173,R,ugm-3,24.32796,R,ugm-3,,,,,,
02-01-2013,22:00,1.19460,R,ugm-3,19.29521,R,ugm-3,21.12691,R,ugm-3,,,,,,
02-01-2013,23:00,1.02965,R,ugm-3,16.41116,R,ugm-3,17.98988,R,ugm-3,,,,,,
02-01-2013,24:00,0.74090,R,ugm-3,12.75638,R,ugm-3,13.89254,R,ugm-3,,,,,,
03-01-2013,01:00,0.49601,R,ugm-3,13.73048,R,ugm-3,14.49069,R,ugm-3,,,,,,
03-01-2013,02:00,0.88184,R,ugm-3,15.62449,R,ugm-3,16.97726,R,ugm-3,,,,,,
03-01-2013,03:00,0.74401,R,ugm-3,12.68561,R,ugm-3,13.82618,R,ugm-3,,,,,,
03-01-2013,04:00,0.62022,R,ugm-3,13.38941,R,ugm-3,14.34064,R,ugm-3,,,,,,
03-01-2013,05:00,0.66169,R,ugm-3,14.80514,R,ugm-3,15.81972,R,ugm-3,,,,,,
03-01-2013,06:00,0.62022,R,ugm-3,14.80466,R,ugm-3,15.75541,R,ugm-3,,,,,,
03-01-2013,07:00,0.99254,R,ugm-3,19.57061,R,ugm-3,21.09296,R,ugm-3,,,,,,
03-01-2013,08:00,1.65361,R,ugm-3,28.84719,R,ugm-3,31.38221,R,ugm-3,,,,,,
03-01-2013,09:00,2.02593,R,ugm-3,35.28515,R,ugm-3,38.39176,R,ugm-3,,,,,,
03-01-2013,10:00,4.54828,R,ugm-3,36.30547,R,ugm-3,43.27916,R,ugm-3,,,,,,
03-01-2013,11:00,9.63415,R,ugm-3,54.74483,R,ugm-3,69.51675,R,ugm-3,,,,,,
03-01-2013,12:00,11.57775,R,ugm-3,62.56792,R,ugm-3,80.32046,R,ugm-3,,,,,,
03-01-2013,13:00,8.60045,R,ugm-3,61.98843,R,ugm-3,75.17583,R,ugm-3,,,,,,
03-01-2013,14:00,12.65230,R,ugm-3,61.11346,R,ugm-3,80.51338,R,ugm-3,,,,,,
03-01-2013,15:00,43.29129,R,ugm-3,70.91837,R,ugm-3,137.29718,R,ugm-3,,,,,,
03-01-2013,16:00,58.79710,R,ugm-3,75.05319,R,ugm-3,165.20677,R,ugm-3,,,,,,
03-01-2013,17:00,63.05569,R,ugm-3,77.20428,R,ugm-3,173.88833,R,ugm-3,,,,,,
03-01-2013,18:00,49.86550,R,ugm-3,78.00848,R,ugm-3,154.46737,R,ugm-3,,,,,,
03-01-2013,19:00,5.04439,R,ugm-3,47.50602,R,ugm-3,55.24041,R,ugm-3,,,,,,
03-01-2013,20:00,2.27414,R,ugm-3,33.36117,R,ugm-3,36.84838,R,ugm-3,,,,,,
03-01-2013,21:00,2.31530,R,ugm-3,28.08984,R,ugm-3,31.63944,R,ugm-3,,,,,,
03-01-2013,22:00,1.52981,R,ugm-3,24.53498,R,ugm-3,26.88067,R,ugm-3,,,,,,
03-01-2013,23:00,1.69508,R,ugm-3,23.63802,R,ugm-3,26.23759,R,ugm-3,,,,,,
03-01-2013,24:00,0.82696,R,ugm-3,17.38176,R,ugm-3,18.64927,R,ugm-3,,,,,,
04-01-2013,01:00,0.88558,R,ugm-3,15.52376,R,ugm-3,16.88075,R,ugm-3,,,,,,
04-01-2013,02:00,0.88558,R,ugm-3,15.17824,R,ugm-3,16.53624,R,ugm-3,,,,,,
04-01-2013,03:00,0.74713,R,ugm-3,14.09847,R,ugm-3,15.24435,R,ugm-3,,,,,,
04-01-2013,04:00,0.66388,R,ugm-3,12.41738,R,ugm-3,13.43570,R,ugm-3,,,,,,
04-01-2013,05:00,0.74682,R,ugm-3,12.54887,R,ugm-3,13.69407,R,ugm-3,,,,,,
04-01-2013,06:00,0.70566,R,ugm-3,13.64569,R,ugm-3,14.72759,R,ugm-3,,,,,,
04-01-2013,07:00,3.36210,R,ugm-3,22.74919,R,ugm-3,27.90491,R,ugm-3,,,,,,
04-01-2013,08:00,3.52768,R,ugm-3,34.05828,R,ugm-3,39.46735,R,ugm-3,,,,,,
04-01-2013,09:00,3.27853,R,ugm-3,35.53855,R,ugm-3,40.56546,R,ugm-3,,,,,,
04-01-2013,10:00,5.18783,R,ugm-3,42.04201,R,ugm-3,49.99629,R,ugm-3,,,,,,
04-01-2013,11:00,8.63288,R,ugm-3,44.96335,R,ugm-3,58.19981,R,ugm-3,,,,,,
04-01-2013,12:00,11.82877,R,ugm-3,47.03889,R,ugm-3,65.17604,R,ugm-3,,,,,,
04-01-2013,13:00,15.06583,R,ugm-3,54.73623,R,ugm-3,77.83660,R,ugm-3,,,,,,
04-01-2013,14:00,19.46536,R,ugm-3,62.91169,R,ugm-3,92.75797,R,ugm-3,,,,,,
04-01-2013,15:00,15.68823,R,ugm-3,65.34439,R,ugm-3,89.39905,R,ugm-3,,,,,,
04-01-2013,16:00,12.20202,R,ugm-3,63.64848,R,ugm-3,82.35823,R,ugm-3,,,,,,
04-01-2013,17:00,15.81327,R,ugm-3,62.11609,R,ugm-3,86.36310,R,ugm-3,,,,,,
04-01-2013,18:00,12.70001,R,ugm-3,59.39747,R,ugm-3,78.87011,R,ugm-3,,,,,,
04-01-2013,19:00,5.27109,R,ugm-3,48.76158,R,ugm-3,56.84333,R,ugm-3,,,,,,
04-01-2013,20:00,3.73535,R,ugm-3,39.35973,R,ugm-3,45.08709,R,ugm-3,,,,,,
04-01-2013,21:00,1.99194,R,ugm-3,30.98680,R,ugm-3,34.04140,R,ugm-3,,,,,,
04-01-2013,22:00,2.19961,R,ugm-3,27.63276,R,ugm-3,31.00545,R,ugm-3,,,,,,
04-01-2013,23:00,1.61868,R,ugm-3,23.87230,R,ugm-3,26.35463,R,ugm-3,,,,,,
04-01-2013,24:00,2.32403,R,ugm-3,20.65978,R,ugm-3,24.22301,R,ugm-3,,,,,,
05-01-2013,01:00,2.27923,R,ugm-3,14.23984,R,ugm-3,17.73429,R,ugm-3,,,,,,
05-01-2013,02:00,2.50125,R,ugm-3,12.94763,R,ugm-3,16.78270,R,ugm-3,,,,,,
05-01-2013,03:00,1.20895,R,ugm-3,17.02651,R,ugm-3,18.88054,R,ugm-3,,,,,,
05-01-2013,04:00,0.83351,R,ugm-3,13.90388,R,ugm-3,15.18229,R,ugm-3,,,,,,
05-01-2013,05:00,1.25073,R,ugm-3,12.68035,R,ugm-3,14.59835,R,ugm-3,,,,,,
05-01-2013,06:00,1.37577,R,ugm-3,16.12238,R,ugm-3,18.23172,R,ugm-3,,,,,,
05-01-2013,07:00,3.22386,R,ugm-3,17.37634,R,ugm-3,22.31926,R,ugm-3,,,,,,
05-01-2013,08:00,14.04990,R,ugm-3,28.93469,R,ugm-3,50.47786,R,ugm-3,,,,,,
05-01-2013,09:00,26.84876,R,ugm-3,43.82733,R,ugm-3,84.99485,R,ugm-3,,,,,,
05-01-2013,10:00,15.13380,R,ugm-3,42.45511,R,ugm-3,65.66014,R,ugm-3,,,,,,
05-01-2013,11:00,12.21543,R,ugm-3,47.44913,R,ugm-3,66.17919,R,ugm-3,,,,,,
05-01-2013,12:00,15.55071,R,ugm-3,51.80819,R,ugm-3,75.65190,R,ugm-3,,,,,,
05-01-2013,13:00,9.96406,R,ugm-3,51.74460,R,ugm-3,67.02265,R,ugm-3,,,,,,
05-01-2013,14:00,33.06062,R,ugm-3,60.57987,R,ugm-3,111.27188,R,ugm-3,,,,,,
05-01-2013,15:00,29.39231,R,ugm-3,58.74339,R,ugm-3,103.81050,R,ugm-3,,,,,,
05-01-2013,16:00,15.55071,R,ugm-3,52.19738,R,ugm-3,76.04119,R,ugm-3,,,,,,
05-01-2013,17:00,31.05995,R,ugm-3,56.96429,R,ugm-3,104.58908,R,ugm-3,,,,,,
05-01-2013,18:00,19.55299,R,ugm-3,57.22009,R,ugm-3,87.20082,R,ugm-3,,,,,,
05-01-2013,19:00,8.79690,R,ugm-3,50.42019,R,ugm-3,63.90834,R,ugm-3,,,,,,
05-01-2013,20:00,4.75284,R,ugm-3,41.24354,R,ugm-3,48.53141,R,ugm-3,,,,,,
05-01-2013,21:00,3.08520,R,ugm-3,34.06880,R,ugm-3,38.79917,R,ugm-3,,,,,,
05-01-2013,22:00,2.00161,R,ugm-3,30.02051,R,ugm-3,33.08960,R,ugm-3,,,,,,
05-01-2013,23:00,1.79237,R,ugm-3,28.32986,R,ugm-3,31.07827,R,ugm-3,,,,,,
05-01-2013,24:00,1.20895,R,ugm-3,20.91988,R,ugm-3,22.77343,R,ugm-3,,,,,,
06-01-2013,01:00,1.45061,R,ugm-3,20.88896,R,ugm-3,23.11307,R,ugm-3,,,,,,
06-01-2013,02:00,1.00449,R,ugm-3,16.35953,R,ugm-3,17.89960,R,ugm-3,,,,,,
06-01-2013,03:00,1.38107,R,ugm-3,12.80562,R,ugm-3,14.92357,R,ugm-3,,,,,,
06-01-2013,04:00,1.54852,R,ugm-3,14.30885,R,ugm-3,16.68312,R,ugm-3,,,,,,
06-01-2013,05:00,1.04617,R,ugm-3,10.58282,R,ugm-3,12.18650,R,ugm-3,,,,,,
06-01-2013,06:00,1.00408,R,ugm-3,8.56131,R,ugm-3,10.10111,R,ugm-3,,,,,,
06-01-2013,07:00,2.38546,R,ugm-3,11.33108,R,ugm-3,14.98874,R,ugm-3,,,,,,
06-01-2013,08:00,2.80362,R,ugm-3,16.42455,R,ugm-3,20.72356,R,ugm-3,,,,,,
06-01-2013,09:00,8.78785,R,ugm-3,25.49602,R,ugm-3,38.97073,R,ugm-3,,,,,,
06-01-2013,10:00,12.97254,R,ugm-3,32.17877,R,ugm-3,52.06958,R,ugm-3,,,,,,
06-01-2013,11:00,30.71570,R,ugm-3,45.76804,R,ugm-3,92.86502,R,ugm-3,,,,,,
06-01-2013,12:00,44.23206,R,ugm-3,55.73838,R,ugm-3,123.55936,R,ugm-3,,,,,,
06-01-2013,13:00,49.71395,R,ugm-3,57.17275,R,ugm-3,133.39979,R,ugm-3,,,,,,
06-01-2013,14:00,35.73733,R,ugm-3,60.22558,R,ugm-3,115.02229,R,ugm-3,,,,,,
06-01-2013,15:00,23.30861,R,ugm-3,41.87610,R,ugm-3,77.61561,R,ugm-3,,,,,,
06-01-2013,16:00,28.07922,R,ugm-3,54.76348,R,ugm-3,97.81783,R,ugm-3,,,,,,
06-01-2013,17:00,29.71131,R,ugm-3,57.01832,R,ugm-3,102.57512,R,ugm-3,,,,,,
06-01-2013,18:00,16.69667,R,ugm-3,54.49047,R,ugm-3,80.09201,R,ugm-3,,,,,,
06-01-2013,19:00,3.84979,R,ugm-3,43.62508,R,ugm-3,49.52801,R,ugm-3,,,,,,
06-01-2013,20:00,1.88311,R,ugm-3,28.65451,R,ugm-3,31.54152,R,ugm-3,,,,,,
06-01-2013,21:00,1.88280,R,ugm-3,25.26652,R,ugm-3,28.15277,R,ugm-3,,,,,,
06-01-2013,22:00,1.84102,R,ugm-3,22.72289,R,ugm-3,25.54603,R,ugm-3,,,,,,
06-01-2013,23:00,1.75776,R,ugm-3,21.22206,R,ugm-3,23.91682,R,ugm-3,,,,,,
06-01-2013,24:00,1.00439,R,ugm-3,15.92491,R,ugm-3,17.46514,R,ugm-3,,,,,,
07-01-2013,01:00,1.34417,R,ugm-3,15.39371,R,ugm-3,17.45475,R,ugm-3,,,,,,
07-01-2013,02:00,1.12008,R,ugm-3,14.77789,R,ugm-3,16.49474,R,ugm-3,,,,,,
07-01-2013,03:00,1.05023,R,ugm-3,14.03345,R,ugm-3,15.64382,R,ugm-3,,,,,,
07-01-2013,04:00,1.30187,R,ugm-3,14.62919,R,ugm-3,16.62565,R,ugm-3,,,,,,
07-01-2013,05:00,2.60436,R,ugm-3,13.74562,R,ugm-3,17.73839,R,ugm-3,,,,,,
07-01-2013,06:00,4.87195,R,ugm-3,19.23497,R,ugm-3,26.70577,R,ugm-3,,,,,,
07-01-2013,07:00,18.73320,R,ugm-3,29.59642,R,ugm-3,58.32068,R,ugm-3,,,,,,
07-01-2013,08:00,53.97379,R,ugm-3,48.54451,R,ugm-3,131.30336,R,ugm-3,,,,,,
07-01-2013,09:00,58.59410,R,ugm-3,53.50458,R,ugm-3,143.34713,R,ugm-3,,,,,,
07-01-2013,10:00,60.52617,R,ugm-3,51.65423,R,ugm-3,144.45988,R,ugm-3,,,,,,
07-01-2013,11:00,48.80716,R,ugm-3,49.72500,R,ugm-3,124.56146,R,ugm-3,,,,,,
07-01-2013,12:00,50.06725,R,ugm-3,47.00734,R,ugm-3,123.77600,R,ugm-3,,,,,,
07-01-2013,13:00,63.13022,R,ugm-3,53.09387,R,ugm-3,149.89267,R,ugm-3,,,,,,
07-01-2013,14:00,109.66948,R,ugm-3,68.20166,R,ugm-3,236.35913,R,ugm-3,,,,,,
07-01-2013,15:00,110.04710,R,ugm-3,68.67023,R,ugm-3,237.40642,R,ugm-3,,,,,,
07-01-2013,16:00,113.70137,R,ugm-3,71.96929,R,ugm-3,246.30834,R,ugm-3,,,,,,
07-01-2013,17:00,96.31245,R,ugm-3,57.98365,R,ugm-3,205.66059,R,ugm-3,,,,,,
07-01-2013,18:00,96.31245,R,ugm-3,58.57223,R,ugm-3,206.24969,R,ugm-3,,,,,,
07-01-2013,19:00,51.91574,R,ugm-3,41.35829,R,ugm-3,120.96142,R,ugm-3,,,,,,
07-01-2013,20:00,38.34855,R,ugm-3,38.00807,R,ugm-3,96.80841,R,ugm-3,,,,,,
07-01-2013,21:00,20.79124,R,ugm-3,30.36859,R,ugm-3,62.24800,R,ugm-3,,,,,,
07-01-2013,22:00,12.22261,R,ugm-3,26.81612,R,ugm-3,45.55690,R,ugm-3,,,,,,
07-01-2013,23:00,9.74484,R,ugm-3,22.49865,R,ugm-3,37.44044,R,ugm-3,,,,,,
07-01-2013,24:00,6.84643,R,ugm-3,19.02316,R,ugm-3,29.52035,R,ugm-3,,,,,,
08-01-2013,01:00,6.96991,R,ugm-3,18.41419,R,ugm-3,29.10188,R,ugm-3,,,,,,
08-01-2013,02:00,2.92284,R,ugm-3,11.47181,R,ugm-3,15.95344,R,ugm-3,,,,,,
08-01-2013,03:00,3.87848,R,ugm-3,12.26343,R,ugm-3,18.21059,R,ugm-3,,,,,,
08-01-2013,04:00,3.96267,R,ugm-3,17.65668,R,ugm-3,23.73293,R,ugm-3,,,,,,
08-01-2013,05:00,4.63746,R,ugm-3,15.50464,R,ugm-3,22.61531,R,ugm-3,,,,,,
08-01-2013,06:00,15.21924,R,ugm-3,23.80154,R,ugm-3,47.13715,R,ugm-3,,,,,,
08-01-2013,07:00,30.10140,R,ugm-3,27.14746,R,ugm-3,73.30254,R,ugm-3,,,,,,
08-01-2013,08:00,47.38617,R,ugm-3,30.88640,R,ugm-3,103.54395,R,ugm-3,,,,,,
08-01-2013,09:00,120.23691,R,ugm-3,60.98867,R,ugm-3,245.34984,R,ugm-3,,,,,,
08-01-2013,10:00,128.07838,R,ugm-3,54.42258,R,ugm-3,250.80645,R,ugm-3,,,,,,
08-01-2013,11:00,62.22624,R,ugm-3,44.02671,R,ugm-3,139.43918,R,ugm-3,,,,,,
08-01-2013,12:00,,,,,,,,,,,,,,,
08-01-2013,13:00,3.45689,R,ugm-3,36.51154,R,ugm-3,41.81203,R,ugm-3,,,,,,
08-01-2013,14:00,9.35912,R,ugm-3,46.92175,R,ugm-3,61.27172,R,ugm-3,,,,,,
08-01-2013,15:00,21.37436,R,ugm-3,49.00877,R,ugm-3,81.78328,R,ugm-3,,,,,,
08-01-2013,16:00,32.92623,R,ugm-3,60.88109,R,ugm-3,111.36727,R,ugm-3,,,,,,
08-01-2013,17:00,33.81119,R,ugm-3,59.39269,R,ugm-3,111.23578,R,ugm-3,,,,,,
08-01-2013,18:00,52.36103,R,ugm-3,61.91480,R,ugm-3,142.20035,R,ugm-3,,,,,,
08-01-2013,19:00,48.65094,R,ugm-3,60.63486,R,ugm-3,135.23168,R,ugm-3,,,,,,
08-01-2013,20:00,21.62725,R,ugm-3,53.55239,R,ugm-3,86.71395,R,ugm-3,,,,,,
08-01-2013,21:00,9.10623,R,ugm-3,42.37861,R,ugm-3,56.34106,R,ugm-3,,,,,,
08-01-2013,22:00,7.58857,R,ugm-3,33.92345,R,ugm-3,45.55934,R,ugm-3,,,,,,
08-01-2013,23:00,2.10794,R,ugm-3,28.19264,R,ugm-3,31.42477,R,ugm-3,,,,,,
08-01-2013,24:00,2.74032,R,ugm-3,18.15010,R,ugm-3,22.35234,R,ugm-3,,,,,,
09-01-2013,01:00,1.91960,R,ugm-3,17.46686,R,ugm-3,20.41020,R,ugm-3,,,,,,
09-01-2013,02:00,1.07268,R,ugm-3,14.19075,R,ugm-3,15.83550,R,ugm-3,,,,,,
09-01-2013,03:00,1.31278,R,ugm-3,13.62465,R,ugm-3,15.63756,R,ugm-3,,,,,,
09-01-2013,04:00,1.48179,R,ugm-3,10.79224,R,ugm-3,13.06429,R,ugm-3,,,,,,
09-01-2013,05:00,1.35488,R,ugm-3,11.58067,R,ugm-3,13.65812,R,ugm-3,,,,,,
09-01-2013,06:00,1.77834,R,ugm-3,15.74800,R,ugm-3,18.47475,R,ugm-3,,,,,,
09-01-2013,07:00,4.70014,R,ugm-3,25.45394,R,ugm-3,32.66072,R,ugm-3,,,,,,
09-01-2013,08:00,9.99368,R,ugm-3,42.27820,R,ugm-3,57.60163,R,ugm-3,,,,,,
09-01-2013,09:00,18.97112,R,ugm-3,55.89520,R,ugm-3,84.98385,R,ugm-3,,,,,,
09-01-2013,10:00,23.41712,R,ugm-3,56.92987,R,ugm-3,92.83562,R,ugm-3,,,,,,
09-01-2013,11:00,17.99698,R,ugm-3,51.91242,R,ugm-3,79.50741,R,ugm-3,,,,,,
09-01-2013,12:00,20.02977,R,ugm-3,49.19141,R,ugm-3,79.90329,R,ugm-3,,,,,,
09-01-2013,13:00,18.33562,R,ugm-3,52.18495,R,ugm-3,80.29918,R,ugm-3,,,,,,
09-01-2013,14:00,21.30014,R,ugm-3,53.37979,R,ugm-3,86.03955,R,ugm-3,,,,,,
09-01-2013,15:00,35.06223,R,ugm-3,58.14287,R,ugm-3,111.90420,R,ugm-3,,,,,,
09-01-2013,16:00,33.62222,R,ugm-3,61.67048,R,ugm-3,113.22383,R,ugm-3,,,,,,
09-01-2013,17:00,35.82433,R,ugm-3,60.80124,R,ugm-3,115.73111,R,ugm-3,,,,,,
09-01-2013,18:00,75.24836,R,ugm-3,74.58081,R,ugm-3,189.96002,R,ugm-3,,,,,,
09-01-2013,19:00,65.38191,R,ugm-3,70.24469,R,ugm-3,170.49555,R,ugm-3,,,,,,
09-01-2013,20:00,43.61652,R,ugm-3,53.73599,R,ugm-3,120.61373,R,ugm-3,,,,,,
09-01-2013,21:00,22.95157,R,ugm-3,46.22895,R,ugm-3,81.42086,R,ugm-3,,,,,,
09-01-2013,22:00,13.93172,R,ugm-3,36.56987,R,ugm-3,57.93154,R,ugm-3,,,,,,
09-01-2013,23:00,7.79157,R,ugm-3,25.06857,R,ugm-3,37.01548,R,ugm-3,,,,,,
09-01-2013,24:00,5.16601,R,ugm-3,17.01982,R,ugm-3,24.94091,R,ugm-3,,,,,,
10-01-2013,01:00,2.83553,R,ugm-3,12.52815,R,ugm-3,16.87628,R,ugm-3,,,,,,
10-01-2013,02:00,4.19675,R,ugm-3,19.10078,R,ugm-3,25.53532,R,ugm-3,,,,,,
10-01-2013,03:00,5.31693,R,ugm-3,15.90244,R,ugm-3,24.05533,R,ugm-3,,,,,,
10-01-2013,04:00,3.31751,R,ugm-3,11.28088,R,ugm-3,16.36823,R,ugm-3,,,,,,
10-01-2013,05:00,3.10484,R,ugm-3,10.21610,R,ugm-3,14.97660,R,ugm-3,,,,,,
10-01-2013,06:00,9.44206,R,ugm-3,14.67987,R,ugm-3,29.15798,R,ugm-3,,,,,,
10-01-2013,07:00,33.94122,R,ugm-3,34.17207,R,ugm-3,86.21483,R,ugm-3,,,,,,
10-01-2013,08:00,72.77372,R,ugm-3,51.03745,R,ugm-3,162.62198,R,ugm-3,,,,,,
10-01-2013,09:00,95.78422,R,ugm-3,70.95614,R,ugm-3,217.82333,R,ugm-3,,,,,,
10-01-2013,10:00,47.21186,R,ugm-3,52.39246,R,ugm-3,124.78288,R,ugm-3,,,,,,
10-01-2013,11:00,48.78533,R,ugm-3,45.67193,R,ugm-3,120.47545,R,ugm-3,,,,,,
10-01-2013,12:00,15.60934,R,ugm-3,31.59880,R,ugm-3,55.53269,R,ugm-3,,,,,,
10-01-2013,13:00,19.69268,R,ugm-3,37.26602,R,ugm-3,67.46095,R,ugm-3,,,,,,
10-01-2013,14:00,8.88951,R,ugm-3,35.14314,R,ugm-3,48.77334,R,ugm-3,,,,,,
10-01-2013,15:00,7.40086,R,ugm-3,36.96145,R,ugm-3,48.30946,R,ugm-3,,,,,,
10-01-2013,16:00,52.65571,R,ugm-3,63.66043,R,ugm-3,144.39824,R,ugm-3,,,,,,
10-01-2013,17:00,54.40005,R,ugm-3,68.07687,R,ugm-3,151.48893,R,ugm-3,,,,,,
10-01-2013,18:00,15.77959,R,ugm-3,42.80223,R,ugm-3,66.99707,R,ugm-3,,,,,,
10-01-2013,19:00,23.69090,R,ugm-3,51.01642,R,ugm-3,87.34139,R,ugm-3,,,,,,
10-01-2013,20:00,28.19927,R,ugm-3,56.62769,R,ugm-3,99.86606,R,ugm-3,,,,,,
10-01-2013,21:00,30.75125,R,ugm-3,51.91959,R,ugm-3,99.07085,R,ugm-3,,,,,,
10-01-2013,22:00,33.60102,R,ugm-3,48.34513,R,ugm-3,99.86606,R,ugm-3,,,,,,
10-01-2013,23:00,21.05411,R,ugm-3,36.90121,R,ugm-3,69.18392,R,ugm-3,,,,,,
10-01-2013,24:00,10.97375,R,ugm-3,23.53140,R,ugm-3,40.35729,R,ugm-3,,,,,,
11-01-2013,01:00,8.37895,R,ugm-3,17.23545,R,ugm-3,30.08286,R,ugm-3,,,,,,
11-01-2013,02:00,3.98970,R,ugm-3,12.07425,R,ugm-3,18.19170,R,ugm-3,,,,,,
11-01-2013,03:00,3.63339,R,ugm-3,9.60314,R,ugm-3,15.17454,R,ugm-3,,,,,,
11-01-2013,04:00,2.65051,R,ugm-3,7.91632,R,ugm-3,11.97990,R,ugm-3,,,,,,
11-01-2013,05:00,4.27481,R,ugm-3,11.08198,R,ugm-3,17.63708,R,ugm-3,,,,,,
11-01-2013,06:00,11.37195,R,ugm-3,15.10875,R,ugm-3,32.54540,R,ugm-3,,,,,,
11-01-2013,07:00,63.40026,R,ugm-3,41.88758,R,ugm-3,139.09995,R,ugm-3,,,,,,
11-01-2013,08:00,127.14197,R,ugm-3,53.90094,R,ugm-3,248.84915,R,ugm-3,,,,,,
11-01-2013,09:00,166.94362,R,ugm-3,76.26620,R,ugm-3,332.24256,R,ugm-3,,,,,,
11-01-2013,10:00,211.06249,R,ugm-3,73.50933,R,ugm-3,397.13369,R,ugm-3,,,,,,
11-01-2013,11:00,100.16599,R,ugm-3,46.54499,R,ugm-3,200.13089,R,ugm-3,,,,,,
11-01-2013,12:00,46.59882,R,ugm-3,28.84767,R,ugm-3,100.29839,R,ugm-3,,,,,,
11-01-2013,13:00,46.81304,R,ugm-3,46.22273,R,ugm-3,118.00202,R,ugm-3,,,,,,
11-01-2013,14:00,46.81210,R,ugm-3,39.70207,R,ugm-3,111.47963,R,ugm-3,,,,,,
11-01-2013,15:00,60.53552,R,ugm-3,48.34322,R,ugm-3,141.16316,R,ugm-3,,,,,,
11-01-2013,16:00,108.37447,R,ugm-3,63.57580,R,ugm-3,229.74786,R,ugm-3,,,,,,
11-01-2013,17:00,247.95700,R,ugm-3,107.71965,R,ugm-3,487.91471,R,ugm-3,,,,,,
11-01-2013,18:00,231.66883,R,ugm-3,97.35342,R,ugm-3,452.57400,R,ugm-3,,,,,,
11-01-2013,19:00,207.55696,R,ugm-3,92.59464,R,ugm-3,410.84402,R,ugm-3,,,,,,
11-01-2013,20:00,200.84524,R,ugm-3,85.91380,R,ugm-3,393.87249,R,ugm-3,,,,,,
11-01-2013,21:00,113.93212,R,ugm-3,60.44552,R,ugm-3,235.13882,R,ugm-3,,,,,,
11-01-2013,22:00,107.47641,R,ugm-3,56.43405,R,ugm-3,221.22882,R,ugm-3,,,,,,
11-01-2013,23:00,75.54148,R,ugm-3,43.57010,R,ugm-3,159.39923,R,ugm-3,,,,,,
11-01-2013,24:00,52.32767,R,ugm-3,36.76925,R,ugm-3,117.00369,R,ugm-3,,,,,,
12-01-2013,01:00,42.65226,R,ugm-3,33.63450,R,ugm-3,99.03333,R,ugm-3,,,,,,
12-01-2013,02:00,44.71321,R,ugm-3,32.43345,R,ugm-3,100.99262,R,ugm-3,,,,,,
12-01-2013,03:00,32.84733,R,ugm-3,31.52469,R,ugm-3,81.88952,R,ugm-3,,,,,,
12-01-2013,04:00,22.19882,R,ugm-3,28.74870,R,ugm-3,62.78642,R,ugm-3,,,,,,
12-01-2013,05:00,12.49514,R,ugm-3,26.46135,R,ugm-3,45.62035,R,ugm-3,,,,,,
12-01-2013,06:00,10.26216,R,ugm-3,23.47307,R,ugm-3,39.20812,R,ugm-3,,,,,,
12-01-2013,07:00,15.88717,R,ugm-3,24.33274,R,ugm-3,48.69287,R,ugm-3,,,,,,
12-01-2013,08:00,33.32006,R,ugm-3,30.93325,R,ugm-3,82.02311,R,ugm-3,,,,,,
12-01-2013,09:00,65.43804,R,ugm-3,37.52660,R,ugm-3,137.86295,R,ugm-3,,,,,,
12-01-2013,10:00,72.13635,R,ugm-3,36.74008,R,ugm-3,147.34770,R,ugm-3,,,,,,
12-01-2013,11:00,117.86548,R,ugm-3,52.78739,R,ugm-3,233.51204,R,ugm-3,,,,,,
12-01-2013,12:00,83.55787,R,ugm-3,39.66621,R,ugm-3,167.78669,R,ugm-3,,,,,,
12-01-2013,13:00,56.20614,R,ugm-3,33.98082,R,ugm-3,120.16252,R,ugm-3,,,,,,
12-01-2013,14:00,49.37905,R,ugm-3,39.17230,R,ugm-3,114.88579,R,ugm-3,,,,,,
12-01-2013,15:00,30.87255,R,ugm-3,32.41448,R,ugm-3,79.75211,R,ugm-3,,,,,,
12-01-2013,16:00,36.19696,R,ugm-3,34.47090,R,ugm-3,89.97160,R,ugm-3,,,,,,
12-01-2013,17:00,70.20397,R,ugm-3,48.11898,R,ugm-3,155.76375,R,ugm-3,,,,,,
12-01-2013,18:00,92.91824,R,ugm-3,57.10773,R,ugm-3,199.58066,R,ugm-3,,,,,,
12-01-2013,19:00,104.85552,R,ugm-3,53.83353,R,ugm-3,214.60932,R,ugm-3,,,,,,
12-01-2013,20:00,98.50053,R,ugm-3,52.75631,R,ugm-3,203.78869,R,ugm-3,,,,,,
12-01-2013,21:00,84.28786,R,ugm-3,48.29875,R,ugm-3,177.53862,R,ugm-3,,,,,,
12-01-2013,22:00,60.02787,R,ugm-3,39.27510,R,ugm-3,131.31713,R,ugm-3,,,,,,
12-01-2013,23:00,69.08764,R,ugm-3,39.34443,R,ugm-3,145.27709,R,ugm-3,,,,,,
12-01-2013,24:00,81.11067,R,ugm-3,45.82254,R,ugm-3,170.19127,R,ugm-3,,,,,,
13-01-2013,01:00,54.51034,R,ugm-3,35.19701,R,ugm-3,118.77798,R,ugm-3,,,,,,
13-01-2013,02:00,11.78782,R,ugm-3,20.38598,R,ugm-3,38.45974,R,ugm-3,,,,,,
13-01-2013,03:00,8.23717,R,ugm-3,20.37386,R,ugm-3,33.00382,R,ugm-3,,,,,,
13-01-2013,04:00,2.80300,R,ugm-3,16.16158,R,ugm-3,20.45969,R,ugm-3,,,,,,
13-01-2013,05:00,3.19153,R,ugm-3,15.49938,R,ugm-3,20.39261,R,ugm-3,,,,,,
13-01-2013,06:00,2.54449,R,ugm-3,15.35068,R,ugm-3,19.25223,R,ugm-3,,,,,,
13-01-2013,07:00,2.45812,R,ugm-3,16.75828,R,ugm-3,20.52677,R,ugm-3,,,,,,
13-01-2013,08:00,3.19122,R,ugm-3,19.45682,R,ugm-3,24.35038,R,ugm-3,,,,,,
13-01-2013,09:00,2.24265,R,ugm-3,19.10109,R,ugm-3,22.53920,R,ugm-3,,,,,,
13-01-2013,10:00,3.10484,R,ugm-3,21.93685,R,ugm-3,26.69821,R,ugm-3,,,,,,
13-01-2013,11:00,5.17474,R,ugm-3,26.67890,R,ugm-3,34.61376,R,ugm-3,,,,,,
13-01-2013,12:00,6.03756,R,ugm-3,31.52804,R,ugm-3,40.78521,R,ugm-3,,,,,,
13-01-2013,13:00,9.96219,R,ugm-3,38.52397,R,ugm-3,53.79891,R,ugm-3,,,,,,
13-01-2013,14:00,15.61152,R,ugm-3,45.89378,R,ugm-3,69.83126,R,ugm-3,,,,,,
13-01-2013,15:00,13.32584,R,ugm-3,46.78214,R,ugm-3,67.21510,R,ugm-3,,,,,,
13-01-2013,16:00,18.45786,R,ugm-3,44.68269,R,ugm-3,72.98406,R,ugm-3,,,,,,
13-01-2013,17:00,26.34952,R,ugm-3,48.14480,R,ugm-3,88.54684,R,ugm-3,,,,,,
13-01-2013,18:00,21.51936,R,ugm-3,47.23301,R,ugm-3,80.22880,R,ugm-3,,,,,,
13-01-2013,19:00,20.82991,R,ugm-3,43.72883,R,ugm-3,75.66730,R,ugm-3,,,,,,
13-01-2013,20:00,13.45525,R,ugm-3,39.20529,R,ugm-3,59.83620,R,ugm-3,,,,,,
13-01-2013,21:00,16.17218,R,ugm-3,38.86248,R,ugm-3,63.65981,R,ugm-3,,,,,,
13-01-2013,22:00,9.87581,R,ugm-3,31.14315,R,ugm-3,46.28585,R,ugm-3,,,,,,
13-01-2013,23:00,2.93209,R,ugm-3,27.90433,R,ugm-3,32.40009,R,ugm-3,,,,,,
13-01-2013,24:00,1.89777,R,ugm-3,16.94618,R,ugm-3,19.85596,R,ugm-3,,,,,,
14-01-2013,01:00,2.19483,R,ugm-3,12.43189,R,ugm-3,15.79776,R,ugm-3,,,,,,
14-01-2013,02:00,1.67471,R,ugm-3,8.20399,R,ugm-3,10.77120,R,ugm-3,,,,,,
14-01-2013,03:00,1.77584,R,ugm-3,8.18311,R,ugm-3,10.90584,R,ugm-3,,,,,,
14-01-2013,04:00,4.07119,R,ugm-3,14.62680,R,ugm-3,20.86920,R,ugm-3,,,,,,
14-01-2013,05:00,11.08787,R,ugm-3,24.93948,R,ugm-3,41.94036,R,ugm-3,,,,,,
14-01-2013,06:00,5.67428,R,ugm-3,26.10419,R,ugm-3,34.80444,R,ugm-3,,,,,,
14-01-2013,07:00,2.68575,R,ugm-3,25.63706,R,ugm-3,29.75544,R,ugm-3,,,,,,
14-01-2013,08:00,5.15447,R,ugm-3,38.27821,R,ugm-3,46.18152,R,ugm-3,,,,,,